Location: Franzen
(48.6167°N, 15.3833°E)
Time: 12:32:29
(UTC+00:00)

SL-8 Rocket - Pass Details

Date: 22 April 2021
Orbit: 958 x 989 km, 82.9° (Epoch: 16 May)

Event Time Altitude Azimuth Distance (km) Brightness Sun altitude
Rises 23:23:43 0° 353° (N) 3,697 8.2 -28.6°
Reaches altitude 10° 23:26:18 10° 357° (N) 2,749 7.3 -28.5°
Maximum altitude 23:32:32 58° 77° (ENE) 1,143 4.3 -28.3°
Enters shadow 23:33:39 51° 116° (ESE) 1,231 4.3 -28.3°
